EW5770 Weather Reports


Display with metric or nautical units.
time (UTC)temp
F
wind
direction
speed
MPH
gust
MPH
rain 1hr
in
rain 24hr
in
rain mn
in
humidity
%
barometer
mb
20260901024207 70 0 0.0 0.0 0.00 0.00 0.00 89 1015.5
20260901023206 70 0 0.0 0.0 0.00 0.00 0.00 90 1015.6
20260901022208 70 0 0.0 0.0 0.00 0.00 0.00 89 1015.5
20260901020207 70 0 0.0 0.0 0.00 0.00 0.00 89 1015.4
20260901014207 70 0 0.0 0.0 0.00 0.00 0.00 89 1015.4
20260901013207 71 0 0.0 0.0 0.00 0.00 0.00 88 1015.5
20260901012209 71 0 0.0 0.0 0.00 0.00 0.00 88 1015.5
20260901011208 71 0 0.0 0.0 0.00 0.00 0.00 88 1015.5
20260901010208 71 0 0.0 0.0 0.00 0.00 0.00 88 1015.6
20260901005204 71 0 0.0 0.0 0.00 0.00 0.00 88 1015.6
20260901004204 71 0 0.0 0.0 0.00 0.00 0.00 88 1015.7
20260901003202 72 0 0.0 0.0 0.00 0.00 0.00 89 1015.7
20260901002201 72 0 0.0 0.0 0.00 0.00 0.00 89 1015.7
20260901001158 72 0 0.0 0.0 0.00 0.00 0.00 90 1015.7
20260901000200 72 0 0.0 0.0 0.00 0.00 0.00 90 1015.7
20260831235158 72 0 0.0 0.0 0.00 0.00 0.00 90 1015.7
20260831234157 72 0 0.0 0.0 0.00 0.00 0.00 89 1015.7
20260831233158 72 0 0.0 0.0 0.00 0.00 0.00 90 1015.6
20260831232202 72 0 0.0 0.0 0.00 0.00 0.00 90 1015.7
20260831231157 72 0 0.0 0.0 0.00 0.00 0.00 90 1015.7
20260831230157 72 0 0.0 0.0 0.00 0.00 0.00 89 1015.6
20260831225159 73 0 0.0 0.0 0.00 0.00 0.00 88 1015.6
20260831224158 73 0 0.0 0.0 0.00 0.00 0.00 88 1015.7
20260831223158 73 0 0.0 0.0 0.00 0.00 0.00 88 1015.6
20260831222158 73 0 0.0 0.0 0.00 0.00 0.00 88 1015.7
20260831221200 73 0 0.0 0.0 0.00 0.00 0.00 89 1015.7
20260831220202 73 0 0.0 0.0 0.00 0.00 0.00 89 1015.6
20260831215159 73 0 0.0 0.0 0.00 0.00 0.00 88 1015.5
20260831214159 73 0 0.0 0.0 0.00 0.00 0.00 87 1015.5
20260831213159 73 0 0.0 0.0 0.00 0.00 0.00 87 1015.4
20260831212200 74 0 0.0 0.0 0.00 0.00 0.00 86 1015.4
20260831210159 74 0 0.0 0.0 0.00 0.00 0.00 87 1015.3
20260831205159 74 0 0.0 0.0 0.00 0.00 0.00 87 1015.3
20260831204200 74 0 0.0 0.0 0.00 0.00 0.00 87 1015.2
20260831203200 74 0 0.0 0.0 0.00 0.00 0.00 87 1015.1
20260831201200 74 0 0.0 0.0 0.00 0.00 0.00 87 1014.9
20260831200202 74 0 0.0 0.0 0.00 0.00 0.00 86 1014.8
20260831195201 74 0 0.0 0.0 0.00 0.00 0.00 86 1014.7
20260831194159 75 0 0.0 0.0 0.00 0.00 0.00 85 1014.8
20260831193201 75 0 0.0 0.0 0.00 0.00 0.00 85 1014.7
20260831191159 75 0 0.0 0.0 0.00 0.00 0.00 84 1014.6
20260831190204 76 0 0.0 0.0 0.00 0.00 0.00 83 1014.5
20260831185158 77 0 0.0 0.0 0.00 0.00 0.00 82 1014.4
20260831183200 77 0 0.0 0.0 0.00 0.00 0.00 81 1014.1
20260831182159 78 0 0.0 0.0 0.00 0.00 0.00 80 1014.0
20260831181204 78 0 0.0 0.0 0.00 0.00 0.00 80 1014.0
20260831175159 78 199 0.0 1.0 0.00 0.00 0.00 78 1014.0
20260831174159 79 0 0.0 0.0 0.00 0.00 0.00 78 1014.0
20260831173158 79 225 0.0 1.0 0.00 0.00 0.00 78 1013.9
20260831172200 79 224 0.0 1.0 0.00 0.00 0.00 77 1014.0
20260831171159 79 152 0.0 8.0 0.00 0.00 0.00 77 1014.0
20260831170200 79 189 0.0 2.0 0.00 0.00 0.00 76 1014.0
20260831165200 79 238 0.0 1.0 0.00 0.00 0.00 76 1014.1
20260831164200 79 256 0.0 1.0 0.00 0.00 0.00 77 1014.1
20260831163206 80 253 0.0 2.0 0.00 0.00 0.00 76 1014.1
20260831162205 80 223 0.0 1.0 0.00 0.00 0.00 76 1014.1
20260831161201 80 239 0.0 1.0 0.00 0.00 0.00 75 1014.1
20260831160158 80 242 0.0 1.0 0.00 0.00 0.00 75 1014.3
20260831155200 80 246 0.0 1.0 0.00 0.00 0.00 76 1014.3
20260831154200 80 242 0.0 1.0 0.00 0.00 0.00 76 1014.4
20260831153206 81 241 0.0 4.0 0.00 0.00 0.00 75 1014.4
20260831151201 80 244 0.0 1.0 0.00 0.00 0.00 75 1014.5
20260831150207 81 242 0.0 1.0 0.00 0.00 0.00 74 1014.5
20260831144159 82 236 0.0 5.0 0.00 0.00 0.00 73 1014.6
20260831143203 82 248 0.0 1.0 0.00 0.00 0.00 71 1014.6
20260831135159 81 239 0.0 9.0 0.00 0.00 0.00 72 1014.6
20260831134159 80 229 0.0 1.0 0.00 0.00 0.00 73 1014.6
20260831133207 81 246 0.0 1.0 0.00 0.00 0.00 72 1014.7
20260831131202 80 243 0.0 2.0 0.00 0.00 0.00 73 1014.8
20260831130206 81 230 0.0 1.0 0.00 0.00 0.00 73 1014.8
20260831125201 81 235 0.0 1.0 0.00 0.00 0.00 73 1014.9
20260831124200 81 203 0.0 11.0 0.00 0.00 0.00 73 1014.9
20260831123208 81 233 0.0 1.0 0.00 0.00 0.00 74 1014.8
20260831122210 81 236 0.0 1.0 0.00 0.00 0.00 74 1014.8
20260831121208 81 231 0.0 1.0 0.00 0.00 0.00 74 1014.8
20260831120210 81 232 1.0 1.0 0.00 0.00 0.00 74 1014.8
20260831115206 82 264 0.0 1.0 0.00 0.00 0.00 73 1014.9
20260831114208 81 249 0.0 1.0 0.00 0.00 0.00 73 1014.9
20260831113209 81 0 0.0 0.0 0.00 0.00 0.00 73 1015.0
20260831112208 82 228 0.0 1.0 0.00 0.00 0.00 71 1015.2
20260831105207 81 242 0.0 1.0 0.00 0.00 0.00 68 1015.2
20260831104207 81 253 0.0 1.0 0.00 0.00 0.00 69 1015.3
20260831103208 82 225 0.0 3.0 0.00 0.00 0.00 67 1015.4
20260831102207 82 233 0.0 1.0 0.00 0.00 0.00 68 1015.3
20260831101208 81 238 0.0 2.0 0.00 0.00 0.00 68 1015.2
20260831100209 81 242 0.0 1.0 0.00 0.00 0.00 68 1015.2
20260831095209 81 192 0.0 4.0 0.00 0.00 0.00 69 1015.2
20260831094203 81 228 0.0 1.0 0.00 0.00 0.00 69 1015.4
20260831093207 81 231 1.0 1.0 0.00 0.00 0.00 69 1015.2
20260831092202 81 236 0.0 9.0 0.00 0.00 0.00 68 1015.3
20260831091208 82 167 0.0 1.0 0.00 0.00 0.00 67 1015.3
20260831090208 82 0 0.0 0.0 0.00 0.00 0.00 66 1015.4
20260831085205 81 0 0.0 0.0 0.00 0.00 0.00 66 1015.4
20260831084207 80 0 0.0 0.0 0.00 0.00 0.00 68 1015.5
20260831083207 79 0 0.0 0.0 0.00 0.00 0.00 67 1015.6
20260831082208 78 0 0.0 0.0 0.00 0.00 0.00 68 1015.5
20260831081201 77 0 0.0 0.0 0.00 0.00 0.00 71 1015.4
20260831080207 76 0 0.0 0.0 0.00 0.00 0.00 73 1015.5
20260831074207 73 0 0.0 0.0 0.00 0.00 0.00 77 1015.3
20260831073208 73 0 0.0 0.0 0.00 0.00 0.00 78 1015.3
20260831072205 72 0 0.0 0.0 0.00 0.00 0.00 78 1015.3
20260831071210 71 0 0.0 0.0 0.00 0.00 0.00 80 1015.3
20260831070159 71 0 0.0 0.0 0.00 0.00 0.00 80 1015.2
20260831065158 71 0 0.0 0.0 0.00 0.00 0.00 79 1015.0
20260831064204 71 0 0.0 0.0 0.00 0.00 0.00 78 1015.0
20260831063207 71 0 0.0 0.0 0.00 0.00 0.00 79 1015.0
20260831062206 70 0 0.0 0.0 0.00 0.00 0.00 82 1015.1
20260831061207 69 0 0.0 0.0 0.00 0.00 0.00 85 1015.1
20260831060207 70 46 0.0 2.0 0.00 0.00 0.00 82 1015.1
20260831054207 69 0 0.0 0.0 0.00 0.00 0.00 83 1014.9
20260831053208 68 0 0.0 0.0 0.00 0.00 0.00 86 1015.0
20260831052206 68 0 0.0 0.0 0.00 0.00 0.00 85 1015.0
20260831051205 68 0 0.0 0.0 0.00 0.00 0.00 86 1014.9
20260831050208 67 0 0.0 0.0 0.00 0.00 0.00 88 1014.9
20260831045206 67 0 0.0 0.0 0.00 0.00 0.00 89 1014.9
20260831044209 67 0 0.0 0.0 0.00 0.00 0.00 87 1014.7
20260831043210 68 0 0.0 0.0 0.00 0.00 0.00 86 1014.7
20260831040158 68 0 0.0 0.0 0.00 0.00 0.00 87 1014.6
20260831035206 68 0 0.0 0.0 0.00 0.00 0.00 87 1014.7
20260831034208 68 0 0.0 0.0 0.00 0.00 0.00 88 1014.5
20260831033208 67 0 0.0 0.0 0.00 0.00 0.00 89 1014.7
20260831032208 67 0 0.0 0.0 0.00 0.00 0.00 88 1014.8
20260831031205 68 0 0.0 0.0 0.00 0.00 0.00 86 1014.9
20260831030210 68 0 0.0 0.0 0.00 0.00 0.00 86 1014.8
20260831025203 68 0 0.0 0.0 0.00 0.00 0.00 86 1014.8